/EX
1
0
SB KEPS @ AMSAT $ORB20310.N
2Line Orbital Elements 20310.AMSAT
HR AMSAT ORBITAL ELEMENTS FOR AMATEUR SATELLITES IN NASA FORMAT
FROM WA5QGD FORT WORTH,TX November 5, 2020
BID: ORB20310.N
DECODE 2-LINE ELSETS WITH THE FOLLOWING KEY:
1 AAAAAU 00 0 0 BBBBB.BBBBBBBB .CCCCCCCC 00000-0 00000-0 0 DDDZ
2 AAAAA EEE.EEEE FFF.FFFF GGGGGGG HHH.HHHH III.IIII JJ.JJJJJJJJKKKKKZ
KEY: A-CATALOGNUM B-EPOCHTIME C-DECAY D-ELSETNUM E-INCLINATION F-RAAN
G-ECCENTRICITY H-ARGPERIGEE I-MNANOM J-MNMOTION K-ORBITNUM Z-CHECKSUM
TO ALL RADIO AMATEURS BT
AO-07
1 07530U 74089B 20310.88567903 -.00000037 00000-0 55021-4 0 9993
2 07530 101.8212 279.9317 0012494 091.1696 323.0821 12.53645845103716
UO-11
1 14781U 84021B 20310.76112386 .00000102 00000-0 18515-4 0 9993
2 14781 097.5903 315.7066 0009973 096.0694 264.1657 14.83206365952775
LO-19
1 20442U 90005G 20310.76926401 .00000015 00000-0 21811-4 0 9990
2 20442 098.7093 258.5977 0012829 098.1094 262.1546 14.32965456608797
HUBBLE
1 20580U 90037B 20310.79765554 .00000548 00000-0 22315-4 0 9992
2 20580 28.4692 104.7535 0002659 169.9380 323.8726 15.09466135477437
MET-2/21
1 22782U 93055A 20310.72240757 .00000024 00000-0 87121-5 0 9993
2 22782 82.5458 121.4846 0022072 196.0788 174.3207 13.83829740372857
AO-27
1 22825U 93061C 20310.77230459 -.00000011 00000-0 13857-4 0 9992
2 22825 098.9262 316.8028 0007898 332.3082 027.7678 14.30096558414016
IO-26
1 22826U 93061D 20310.58564404 -.00000006 00000-0 15680-4 0 9992
2 22826 098.9202 316.5426 0008251 319.3995 040.6570 14.30433421414224
FO-29
1 24278U 96046B 20310.77032081 .00000005 00000-0 41260-4 0 9994
2 24278 098.5890 042.1404 0350529 009.1400 351.5904 13.53099913195990
NOAA-15
1 25338U 98030A 20310.81999574 .00000011 00000-0 22989-4 0 9995
2 25338 98.7064 335.0806 0009951 206.5169 153.5502 14.25996968169371
GO-32
1 25397U 98043D 20310.77781756 .00000007 00000-0 22463-4 0 9992
2 25397 098.7424 251.2787 0001880 044.7430 315.3900 14.23693783159667
ISS
1 25544U 98067A 20310.93143519 .00001418 00000-0 33452-4 0 9996
2 25544 51.6474 7.1012 0001952 85.6399 266.9839 15.49387714253986
NO-44
1 26931U 01043C 20310.81151914 -.00000015 00000-0 26095-4 0 9998
2 26931 67.0496 137.6007 0006833 275.7248 84.3074 14.30593346997362
SO-50
1 27607U 02058C 20310.60084827 .00000027 00000-0 24284-4 0 9991
2 27607 064.5550 302.8182 0032197 125.7375 234.6729 14.75674375961542
CO-55
1 27844U 03031E 20310.76688687 .00000054 00000-0 43832-4 0 9997
2 27844 098.6829 316.3750 0010048 012.7565 347.3865 14.22265597900180
CO-57
1 27848U 03031J 20310.76437108 .00000040 00000-0 37851-4 0 9990
2 27848 098.6892 316.9390 0010159 025.1839 334.9832 14.21848927900027
RS-22
1 27939U 03042A 20310.85932506 .00000158 00000-0 36909-4 0 9998
2 27939 98.1119 83.9731 0011648 266.4801 93.5077 14.66901701914740
NOAA-18
1 28654U 05018A 20310.76010084 .00000083 00000-0 69450-4 0 9990
2 28654 99.0270 8.3931 0014229 189.4269 170.6637 14.12552774796959
CO-58
1 28895U 05043F 20310.63855468 .00000196 00000-0 46431-4 0 9993
2 28895 098.0302 083.2096 0016594 191.4361 168.6467 14.63818552801262
Falconsat-3
1 30776U 07006E 20310.79276205 .00004399 00000-0 11396-3 0 9998
2 30776 035.4343 095.3125 0002437 006.9330 353.1430 15.38548148758612
CO-65
1 32785U 08021C 20310.83622350 .00000337 00000-0 41841-4 0 9996
2 32785 097.5874 292.7390 0013771 030.3550 329.8462 14.88545634678906
AAUSAT2
1 32788U 08021F 20310.73231634 .00000717 00000-0 70110-4 0 9992
2 32788 097.4958 308.9931 0010426 305.8536 054.1717 14.95209523680423
DO-64
1 32789U 08021G 20310.68122985 .00001408 00000-0 95154-4 0 9998
2 32789 097.4037 348.4602 0011863 183.9682 176.1454 15.08073938683092
CO-66
1 32791U 08021J 20310.52454881 .00000603 00000-0 66068-4 0 9995
2 32791 97.5519 298.5293 0013214 359.2476 0.8721 14.91153986679484
RS-30
1 32953U 08025A 20310.96732023 .00000037 00000-0 19437-3 0 9992
2 32953 082.5054 189.9112 0019732 102.9895 257.3385 12.43098689565217
PRISM
1 33493U 09002B 20310.81260715 .00001473 00000-0 13267-3 0 9996
2 33493 098.1593 257.0693 0013709 312.4629 047.5432 14.97219769640851
NOAA-19
1 33591U 09005A 20310.77430587 -.00000003 00000-0 23946-4 0 9994
2 33591 99.1958 319.8038 0014596 42.7589 317.4715 14.12437509605348
TISAT-1
1 36799U 10035E 20310.46334541 .00000461 00000-0 52171-4 0 9990
2 36799 098.2024 126.2625 0011341 223.8672 136.1645 14.91470133559946
JUGNU
1 37839U 11058B 20310.89718561 .00000303 00000-0 19518-4 0 9990
2 37839 019.9598 144.9833 0018947 147.7219 240.7634 14.12693675468812
SRMSAT
1 37841U 11058D 20310.82898166 .00000299 00000-0 19080-4 0 9994
2 37841 019.9711 212.6547 0011755 357.5384 053.0474 14.10677878468127
AO-71
1 37854U 11061E 20310.74017773 .00001239 00000-0 69266-4 0 9996
2 37854 101.7148 115.0319 0157221 1.5339 358.6325 15.07668009493213
HRBE
1 37855U 11061F 20310.71100711 .00001155 00000-0 64074-4 0 9998
2 37855 101.7277 112.0716 0169756 15.5937 345.0414 15.06702914492941
HORYU-2
1 38340U 12025D 20310.63425473 .00000232 00000-0 41610-4 0 9991
2 38340 098.2638 007.4691 0010446 314.6300 045.4056 14.75912798445375
RS-40
1 38735U 12041C 20310.83781273 .00000003 00000-0 -51989-4 0 9999
2 38735 082.4738 272.4924 0016007 211.2762 148.7366 12.42580588375413
BEESAT-3
1 39135U 13015F 20310.85616929 .00001327 00000-0 73354-4 0 9992
2 39135 064.8660 204.6482 0024814 219.3888 140.5435 15.18491318416685
BEESAT-2
1 39136U 13015G 20310.43323599 .00001422 00000-0 78732-4 0 9996
2 39136 064.8762 211.5072 0034716 265.5282 094.1878 15.17899808416516
ZACUBE-1
1 39417U 13066B 20310.47567492 .00000255 00000-0 38130-4 0 9991
2 39417 097.5744 300.7212 0058869 174.0404 186.1523 14.81346408375913
TRITON-1
1 39427U 13066M 20310.84080011 .00000401 00000-0 71712-4 0 9996
2 39427 97.7450 264.0471 0113381 346.6072 13.2131 14.68080047372593
GOMX-1
1 39430U 13066Q 20310.83569941 .00000294 00000-0 61474-4 0 9997
2 39430 97.7997 240.8789 0152112 99.0273 262.8198 14.59459284370422
LO-74
1 39440U 13066AA 20310.69610173 .00000264 00000-0 43674-4 0 9995
2 39440 097.6478 285.5125 0078691 241.2506 118.0782 14.76084574373413
AO-73
1 39444U 13066AE 20310.72922997 .00000313 00000-0 44456-4 0 9997
2 39444 097.5674 303.2614 0058219 164.7287 195.5701 14.82214641374299
SPROUT
1 39770U 14029E 20310.84897114 .00000952 00000-0 10988-3 0 9995
2 39770 97.9054 56.6052 0008343 217.1199 142.9423 14.87948318350088
DUCHIFAT-1
1 40021U 14033M 20310.75171954 .00000613 00000-0 67776-4 0 9990
2 40021 097.9506 242.9030 0012681 175.3790 184.7547 14.91028943346948
NANOSATCBR1
1 40024U 14033Q 20310.78696385 .00000383 00000-0 45447-4 0 9991
2 40024 097.9330 238.8429 0011934 179.9306 180.1915 14.90179531346280
DTUSAT-2
1 40030U 14033W 20310.76414390 .00000335 00000-0 41796-4 0 9990
2 40030 97.9045 232.2119 0011558 183.9061 176.2067 14.88794895346545
EO-80
1 40032U 14033Y 20310.78774503 .00000374 00000-0 46004-4 0 9999
2 40032 097.9051 232.2390 0011489 184.6465 175.4647 14.88747195346012
ANTELSAT
1 40034U 14033AA 20310.84387111 .00000262 00000-0 46085-4 0 9998
2 40034 097.6964 159.6444 0057197 261.7323 097.7398 14.74324318342717
VELOX-1
1 40057U 14034E 20310.79817073 .00000437 00000-0 68289-4 0 9997
2 40057 98.2996 91.8122 0011821 56.9581 303.2764 14.77964782342516
DAURIA DX 1
1 40071U 14037C 20310.82078760 .00000149 00000-0 26646-4 0 9993
2 40071 98.4607 137.0868 0009438 49.0089 311.1940 14.81407278342184
